TimeGMT,TemperatureF,Dew PointF,Humidity,Sea Level PressureIn,VisibilityMPH,Wind Direction,Wind SpeedMPH,Gust SpeedMPH,PrecipitationIn,Events,Conditions,WindDirDegrees,DateUTC
12:50 AM,55.4,51.8,88,30.21,6.2,SW,15.0,-,N/A,,Overcast,230,2012-11-13 00:50:00
1:50 AM,55.4,50.0,82,30.21,6.2,SW,16.1,-,N/A,,Mostly Cloudy,220,2012-11-13 01:50:00
2:50 AM,54,52,90,30.23,12,SSW,12.7,,,,Scattered Clouds,210,2012-11-13 02:50:00
2:50 AM,53.6,51.8,94,30.21,6.2,SSW,12.7,-,N/A,,Partly Cloudy,210,2012-11-13 02:50:00
3:50 AM,53.6,51.8,94,30.21,6.2,SSW,12.7,24.2,N/A,,Mostly Cloudy,210,2012-11-13 03:50:00
4:50 AM,53.6,51.8,94,30.21,6.2,SSW,15.0,-,N/A,,Mostly Cloudy,210,2012-11-13 04:50:00
5:50 AM,54,53,94,30.24,3,SW,15.0,,,,Mist,220,2012-11-13 05:50:00
5:50 AM,53.6,53.6,100,30.21,3.1,SW,15.0,-,N/A,,Overcast,220,2012-11-13 05:50:00
6:50 AM,53.6,51.8,94,30.24,6.2,SW,16.1,27.6,N/A,,Mostly Cloudy,220,2012-11-13 06:50:00
7:50 AM,53.6,53.6,100,30.24,3.7,SW,13.8,-,N/A,,Overcast,220,2012-11-13 07:50:00
8:50 AM,55,51,83,30.27,6,SSW,15.0,,,,Haze,210,2012-11-13 08:50:00
8:50 AM,55.4,51.8,88,30.24,6.2,SSW,15.0,-,N/A,,Haze,210,2012-11-13 08:50:00
9:50 AM,55.4,50.0,82,30.24,6.2,SSW,15.0,26.5,N/A,,Overcast,210,2012-11-13 09:50:00
10:50 AM,55.4,50.0,82,30.27,6.2,SSW,16.1,-,N/A,,Overcast,200,2012-11-13 10:50:00
11:50 AM,55,51,84,30.27,11,SSW,13.8,,,,Overcast,200,2012-11-13 11:50:00
11:50 AM,55.4,51.8,88,30.27,6.2,SSW,13.8,-,N/A,,Mostly Cloudy,200,2012-11-13 11:50:00
12:50 PM,55.4,50.0,82,30.24,6.2,SSW,15.0,-,N/A,,Mostly Cloudy,200,2012-11-13 12:50:00
1:50 PM,55.4,53.6,94,30.24,6.2,SSW,16.1,27.6,N/A,,Mostly Cloudy,200,2012-11-13 13:50:00
2:50 PM,54,51,86,30.25,7,SSW,16.1,,,,Haze,200,2012-11-13 14:50:00
2:50 PM,53.6,51.8,94,30.24,6.2,SSW,16.1,27.6,N/A,,Mostly Cloudy,200,2012-11-13 14:50:00
3:50 PM,53.6,50.0,88,30.24,6.2,SSW,12.7,-,N/A,,Mostly Cloudy,200,2012-11-13 15:50:00
4:50 PM,53.6,50.0,88,30.24,6.2,SSW,13.8,-,N/A,,Mostly Cloudy,200,2012-11-13 16:50:00
5:50 PM,53,51,90,30.25,11,South,11.5,,,,Overcast,190,2012-11-13 17:50:00
5:50 PM,53.6,51.8,94,30.24,6.2,South,11.5,-,N/A,,Overcast,190,2012-11-13 17:50:00
6:50 PM,53.6,51.8,94,30.24,6.2,South,12.7,-,N/A,,Overcast,180,2012-11-13 18:50:00
7:50 PM,53.6,50.0,88,30.24,6.2,South,15.0,-,N/A,,Overcast,190,2012-11-13 19:50:00
8:50 PM,53,49,82,30.27,11,South,12.7,,,,Overcast,190,2012-11-13 20:50:00
8:50 PM,53.6,50.0,88,30.24,6.2,South,12.7,-,N/A,,Overcast,190,2012-11-13 20:50:00
9:50 PM,53.6,48.2,82,30.24,6.2,SSW,11.5,-,N/A,,Overcast,200,2012-11-13 21:50:00
10:50 PM,53.6,46.4,77,30.24,6.2,South,12.7,-,N/A,,Overcast,190,2012-11-13 22:50:00
11:50 PM,53,50,87,30.26,9,South,9.2,,,,Overcast,170,2012-11-13 23:50:00
11:50 PM,53.6,50.0,88,30.24,6.2,South,9.2,-,N/A,,Overcast,170,2012-11-13 23:50:00